www.pogodaiklimat.ru

Погода и климат >> Архив погоды >> Индия >> Уттар-Прадеш >> Аллахабад


ПОГОДА в Аллахабаде

  • Прогноз погоды в Аллахабаде
  • Монитор погоды в Аллахабаде

АРХИВ ПОГОДЫ в Аллахабаде

Время (UTC), дата Ветер
(напр.,м/с)
 
Видим.   Явления Облачность Т
(С)
Тd
(С)
f
(%)
Тe
(С)
Тes
(С)
Комфортность P
(гПа)
Po
(гПа)
Тmin
(С)
Tmax
(С)
R
(мм)
R24
(мм)
S
(см)
03 10.09 штиль 0 2000 м мгла 9/4 600 м
[Sc Ac trans]
+27.2 +25.5 90 +40 +43 очень
душно
1000.8 989.7 +25.8 22
06 10.09 штиль 0 4000 м мгла 6/4
[Sc diur, vesp Ac trans]
+34.0 +28.6 74 +57 +69 опасность
перегрева
999.9 989.1 3
09 10.09 В 2 4000 м дымка 8/5 300 м
[Sc diur, vesp Ac trans]
+28.6 +27.5 94 +46 +51 опасность
перегрева
1000.8 989.8 3
15 10.09 В 3 2000 м дымка 9/4 600 м
[Sc Ac trans]
+27.0 +26.2 95 +41 +41 опасность
перегрева
1003.4 992.3 2
18 10.09 штиль 0 4000 м гроза без осадков 9/4 540 м
[Cb calv Ac trans]
+29.2 +27.3 90 +47 +47 опасность
перегрева
1004.1 993.0
21 10.09 В 1 2000 м мгла 8/4 540 м
[Sc Ac trans]
+29.6 +27.1 86 +47 +47 опасность
перегрева
999.6 988.6 90
00 11.09 В 2 4000 м дымка {дождь} 10/5 300 м
[Cb calv As op]
+25.4 +25.4 100 +37 +37 очень
душно
1004.7 993.5 11
03 11.09 СВ 1 4000 м дымка 10/5 300 м
[Frnb As op]
+26.8 +26.2 97 +41 +41 опасность
перегрева
1006.7 995.5 +22.5 11
06 11.09 С 2 4000 м дымка 10/5 300 м
[Frnb As op]
+28.8 +26.9 89 +45 +47 опасность
перегрева
1005.7 994.6
09 11.09 В 2 4000 м дымка 9/5 300 м
[Sc diur, vesp Ac trans]
+30.8 +27.2 81 +49 +52 опасность
перегрева
1003.1 992.1
12 11.09 В 1 4000 м дымка 8/3 300 м
[Sc diur, vesp Ac trans]
+28.8 +27.4 92 +46 +46 опасность
перегрева
1003.3 992.2 +31.4 70
15 11.09 0 н/о
18 11.09 штиль 0 2000 м слаб. дождь 9/4 540 м
[Cb calv Ac cuf]
+28.0 +26.9 94 +44 +44 опасность
перегрева
1007.0 995.9 9
21 11.09 штиль 0 2000 м слаб. дождь 9/4 540 м
[Cb calv As op]
+28.0 +27.4 97 +45 +45 опасность
перегрева
1007.4 996.3 0.0
03 12.09 СВ 2 4000 м {дождь} 9/5
[Sc Ac trans]
+27.3 +24.5 85 +39 +40 очень
душно
1007.5 996.3 +26.6 46
06 12.09 С 2 2000 м слаб. дождь 10/6 200 м
[Cb calv As op]
+25.8 +25.8 100 +38 +40 очень
душно
1008.8 997.6 15
09 12.09 В 2 2000 м дымка {дождь} 10/6 300 м
[Frnb As op]
+26.8 +26.8 100 +42 +43 опасность
перегрева
1006.7 995.5 15
12 12.09 СВ 2 4000 м дымка {дождь} 9/5 300 м
[Frnb Ac trans]
+26.6 +26.0 97 +40 +40 очень
душно
1006.7 995.5 +27.4 15
15 12.09 СВ 3 2000 м дымка 9/4 300 м
[Frnb Ac trans]
+26.4 +25.3 94 +38 +38 очень
душно
1008.7 997.5 5
00 13.09 СВ 2 2000 м слаб. морось {дождь} 10/6 200 м
[Cb calv As op]
+26.0 +26.0 100 +39 +39 очень
душно
1007.0 995.8 21
03 13.09 СВ 3 2000 м слаб. дождь {морось} 10/6 200 м
[Cb calv As op]
+25.4 +25.4 100 +37 +37 очень
душно
1009.6 998.3 +22.5 33
06 13.09 СВ 1 4000 м мгла 9/9
[Sc diur, vesp]
+30.6 +27.0 81 +48 +50 опасность
перегрева
1003.5 992.5 1
18 13.09 штиль 0 2000 м слаб. дождь 9/4 300 м
[Cb calv Ac trans]
+25.8 +25.5 98 +38 +38 очень
душно
1008.5 997.3 4
00 14.09 Ю 2 2000 м дымка 10/6 200 м
[Frnb As op]
+25.6 +25.3 98 +37 +37 очень
душно
1007.2 996.0 2
03 14.09 штиль 0 4000 м дымка 9/5 <50 м
[Frnb As op]
+22.2 +19.2 83 +28 +29 душно 888.7 +19.8 +33.2 2
12 14.09 Ю 3 2000 м дымка 9/5 300 м
[Sc diur, vesp Ac trans]
+28.8 +26.9 89 +45 +45 опасность
перегрева
1005.0 993.9 +33.6 3
00 15.09 В 2 2000 м дымка {дождь} 10/5 200 м
[Cb calv As op]
+25.8 +25.8 100 +38 +38 очень
душно
1006.9 995.7 7
03 15.09 нст 1 4000 м сильн. гроза, ливневой дождь 10/6 600 м
[Cb cap Ac As]
+23.8 +23.8 100 +32 +33 очень
душно
1009.3 998.0 +23.7 144
06 15.09 СВ 3 4000 м дымка 9/5 300 м
[Cb calv Ac trans]
+26.8 +26.2 97 +41 +44 опасность
перегрева
1006.4 995.2 0.2
18 15.09 штиль 0 2000 м дымка {дождь} 9/4 300 м
[Cb calv Ac trans]
+27.8 +26.1 90 +42 +42 опасность
перегрева
1007.4 996.3 0.1
00 16.09 В 2 2000 м слаб. дождь {гроза} 10/6 200 м
[Cb calv As op]
+25.0 +25.0 100 +36 +36 очень
душно
1006.2 995.0 70
06 16.09 В 4 1000 м дождь 10/6 200 м
[Cb calv As op]
+25.2 +25.2 100 +36 +37 очень
душно
1007.3 996.1 1
12 16.09 СЗ 3 2000 м дымка {дождь} 10/5 300 м
[Cb calv As op]
+25.8 +25.5 98 +38 +38 очень
душно
1004.5 993.3 +26.6 3
18 16.09 штиль 0 2000 м дымка 9/4 480 м
[Cb calv Ac trans]
+27.0 +25.6 92 +40 +40 очень
душно
1007.8 996.6 19
00 17.09 0 дымка {дождь} н/о +25.2 +25.2 100 +36 +36 очень
душно
1007.5 996.3 4

 

Местоположение метеостанции Аллахабад (Уттар-Прадеш, Индия): широта 25.45 долгота 81.73 высота над уровнем моря 98 м.

В архиве по умолчанию представлена погода в Аллахабаде за последнюю неделю. Архивные данные за месяц целиком и за предыдущие месяцы, начиная с января 2011 года, Вы можете получить, выбрав интересующий диапазон дат из раскрывающегося списка и нажав кнопку "Ввод!".


*Определитесь, кто Вы:
робот инопланетянин человек

Внимание! Время в таблицах - всемирное. Для получения местного времени необходимо прибавить поправку, которая равна 5.5 ч.

Смотрите также архив погоды в соседних городах и на ближайших метеорологических станциях:

Погода в Ферсатгиндже (Уттар-Прадеш, Индия) (96 км)
Погода в Султанпуре (Уттар-Прадеш, Индия) (97 км)
Погода в Реве (Мадхья-Прадеш, Индия) (111 км)
Погода в Варанаси аэропорту (Уттар-Прадеш, Индия) (113 км)
Погода в Сидхи (Мадхья-Прадеш, Индия) (115 км)
Погода в Варанаси (Уттар-Прадеш, Индия) (131 км)
Погода в Сатне (Мадхья-Прадеш, Индия) (133 км)
Погода в Банде (Уттар-Прадеш, Индия) (137 км)
Погода в Лакхнау (Уттар-Прадеш, Индия) (168 км)
Погода в Хамирпуре (Уттар-Прадеш, Индия) (168 км)

Пояснения к столбцам:

Ветер - указаны скорость ветра в м/с - средняя за 10 мин, порывы в срок и между сроками (в фигурных скобках) и направление, откуда дует ветер: С - северный, СВ - северо-восточный, В - восточный, ЮВ - юго-восточный, Ю - южный, ЮЗ - юго-западный, З - западный, СЗ - северо-западный.
Видимость - горизонтальная дальность видимости в метрах или километрах. При видимости от 1 до 10 км при отсутствии осадков обычно наблюдается дымка, при ухудшении видимости до 1 км и менее - туман. В сухую погоду видимость может ухудшаться дымом, пылью или мглою.
Явления - указаны атмосферные явления, наблюдавшиеся в срок или в последний час перед сроком; фигурными скобками обозначены явления, наблюдавшиеся между сроками (за 1-3 часа до срока); квадратными скобками обозначены град или гололедные отложения с указанием их диаметра в мм.
Облачность - указаны через наклонную черту общая и нижняя облачность в баллах и высота нижней границы облаков в метрах; квадратными скобками обозначены формы облаков: Ci - перистые, Cs - перисто-слоистые, Cc - перисто-кучевые, Ac - высококучевые, As - высокослоистые, Sc - слоисто-кучевые, Ns - слоисто-дождевые, Cu - кучевые, Cb - кучево-дождевые. Подробнее классификацию облаков см. в Атласе облаков (PDF).
T - Температура воздуха - температура, измеренная на высоте 2 м над землей.
Td - Температура точки росы - температура, при понижении до которой содержащийся в воздухе водяной пар достигнет насыщения.
f - Относительная влажность воздуха - влажноcть воздуха, измеренная на высоте 2 м над землей.
Te - Эффективная температура - температура, которую ощущает одетый по сезону человек в тени. Характеристика душности погоды. При расчете учитывается влияние влажности воздуха и скорости ветра на теплоощущения человека.
Tes - Эффективная температура на солнце - температура, которую ощущает человек, с поправкой на солнечный нагрев. Характеристика знойности погоды. Зависит от высоты солнца над горизонтом, облачности и скорости ветра. Ночью, в пасмурную погоду, а также при ветре 12 м/с и более поправка равна нулю.
P - Атмосферное давление - приведенное к уровню моря атмосферное давление.
Po - Атмосферное давление - измеренное на уровне метеостанции атмосферное давление.
Tmin - Минимальная температура - минимум температуры воздуха на высоте 2 м над землей.
Tmax - Максимальная температура - максимум температуры воздуха на высоте 2 м над землей.
R - Количество осадков - Количество выпавших осадков за период времени, мм. При наведении курсора мыши на число - период времени, за который выпало указанное количество осадков.
R24 - Количество осадков - Количество выпавших осадков за 24 часа, мм.
S - Снежный покров - Высота снежного покрова, см. При наведении курсора мыши на число - состояние снежного покрова и степень покрытия местности в баллах.